VLG92JC LEBL-LECO

Flight info

Callsign VLG92JC
Flight time 1h 20m
Altitude 31000
Route LOBAR N725 DIRMU/N0461F330 N725 SUSOS/N0423F230 N725 LOMDA
Aircraft A320/M-SDE3FGHIRWY/LB1

Departure

Time 2026-05-07 09:33
Airport Josep Tarradellas Barcelona-El Prat Airport (LEBL)

Arrival

Time 2026-05-07 10:54
Airport A Coruña Airport (LECO)
Time Latitude Longitude Altitude Speed Heading
2026-05-07 08:56 41.29102 2.07244 19 ft 0 kts 155°
2026-05-07 09:21 41.29113 2.07237 21 ft 2 kts 155°
2026-05-07 09:21 41.29129 2.07228 19 ft 2 kts 155°
2026-05-07 09:22 41.29145 2.07217 23 ft 3 kts 131°
2026-05-07 09:22 41.29154 2.07197 19 ft 2 kts 105°
2026-05-07 09:22 41.29157 2.07173 20 ft 3 kts 74°
2026-05-07 09:22 41.29155 2.07165 18 ft 0 kts 66°
2026-05-07 09:25 41.29156 2.07168 18 ft 2 kts 66°
2026-05-07 09:26 41.29165 2.07197 19 ft 5 kts 66°
2026-05-07 09:26 41.29185 2.07257 19 ft 9 kts 66°
2026-05-07 09:26 41.29214 2.07343 20 ft 7 kts 65°
2026-05-07 09:26 41.29260 2.07384 18 ft 10 kts 348°
2026-05-07 09:27 41.29305 2.07442 16 ft 12 kts 67°
2026-05-07 09:27 41.29341 2.07556 17 ft 15 kts 67°
2026-05-07 09:27 41.29440 2.07847 17 ft 18 kts 65°
2026-05-07 09:28 41.29495 2.08006 15 ft 20 kts 65°
2026-05-07 09:28 41.29548 2.08161 15 ft 15 kts 65°
2026-05-07 09:28 41.29531 2.08280 16 ft 15 kts 153°
2026-05-07 09:28 41.29427 2.08341 19 ft 17 kts 155°
2026-05-07 09:29 41.29314 2.08410 20 ft 19 kts 155°
2026-05-07 09:29 41.29189 2.08437 20 ft 20 kts 196°
2026-05-07 09:29 41.29044 2.08374 19 ft 24 kts 198°
2026-05-07 09:29 41.28877 2.08297 17 ft 27 kts 198°
2026-05-07 09:30 41.28729 2.08230 16 ft 16 kts 198°
2026-05-07 09:30 41.28654 2.08122 17 ft 17 kts 245°
2026-05-07 09:30 41.28607 2.07984 16 ft 17 kts 246°
2026-05-07 09:30 41.28560 2.07846 16 ft 16 kts 245°
2026-05-07 09:31 41.28517 2.07721 16 ft 14 kts 245°
2026-05-07 09:31 41.28478 2.07608 18 ft 13 kts 245°
2026-05-07 09:31 41.28443 2.07506 16 ft 11 kts 245°
2026-05-07 09:31 41.28413 2.07417 17 ft 10 kts 245°
2026-05-07 09:32 41.28375 2.07350 17 ft 8 kts 210°
2026-05-07 09:32 41.28324 2.07343 16 ft 7 kts 166°
2026-05-07 09:32 41.28271 2.07372 17 ft 11 kts 154°
2026-05-07 09:32 41.28245 2.07476 19 ft 18 kts 66°
2026-05-07 09:33 41.28359 2.07812 21 ft 72 kts 65°
2026-05-07 09:33 41.28656 2.08678 21 ft 131 kts 66°
2026-05-07 09:33 41.29095 2.09956 178 ft 161 kts 65°
2026-05-07 09:33 41.29475 2.11312 947 ft 155 kts 77°
2026-05-07 09:34 41.29524 2.12760 1647 ft 158 kts 97°
2026-05-07 09:34 41.29359 2.14194 2360 ft 156 kts 101°
2026-05-07 09:34 41.29119 2.15640 2856 ft 170 kts 103°
2026-05-07 09:34 41.28808 2.17266 3134 ft 195 kts 104°
2026-05-07 09:35 41.28533 2.19154 3405 ft 221 kts 95°
2026-05-07 09:35 41.28507 2.21301 3785 ft 244 kts 88°
2026-05-07 09:35 41.28557 2.23665 4215 ft 267 kts 87°
2026-05-07 09:35 41.28680 2.26212 4757 ft 284 kts 83°
2026-05-07 09:36 41.29255 2.28747 5482 ft 291 kts 61°
2026-05-07 09:36 41.30505 2.30869 6296 ft 295 kts 39°
2026-05-07 09:36 41.32261 2.32272 7094 ft 296 kts 18°
2026-05-07 09:36 41.34283 2.32766 7903 ft 297 kts
2026-05-07 09:37 41.36356 2.32841 8760 ft 299 kts 358°
2026-05-07 09:37 41.38440 2.32789 9622 ft 302 kts 355°
2026-05-07 09:37 41.40573 2.32473 10117 ft 315 kts 342°
2026-05-07 09:37 41.42532 2.31019 10361 ft 332 kts 315°
2026-05-07 09:38 41.43961 2.28509 10556 ft 351 kts 302°
2026-05-07 09:38 41.45336 2.25699 10677 ft 372 kts 302°
2026-05-07 09:38 41.46803 2.22748 10815 ft 391 kts 303°
2026-05-07 09:38 41.48340 2.19694 11216 ft 400 kts 303°
2026-05-07 09:39 41.49911 2.16601 11773 ft 405 kts 303°
2026-05-07 09:39 41.51500 2.13477 12341 ft 409 kts 303°
2026-05-07 09:39 41.53104 2.10317 12880 ft 414 kts 303°
2026-05-07 09:39 41.54719 2.07111 13411 ft 418 kts 301°
2026-05-07 09:40 41.55964 2.03604 13896 ft 420 kts 285°
2026-05-07 09:40 41.56629 1.99797 14364 ft 422 kts 281°
2026-05-07 09:40 41.57235 1.95946 14857 ft 424 kts 280°
2026-05-07 09:40 41.57638 1.93330 15167 ft 426 kts 280°
2026-05-07 09:41 41.58230 1.89443 15627 ft 428 kts 280°
2026-05-07 09:41 41.58823 1.85532 16060 ft 431 kts 280°
2026-05-07 09:41 41.59419 1.81601 16491 ft 434 kts 280°
2026-05-07 09:41 41.60023 1.77648 16919 ft 436 kts 280°
2026-05-07 09:42 41.60633 1.73669 17336 ft 438 kts 280°
2026-05-07 09:42 41.61244 1.69676 17723 ft 440 kts 280°
2026-05-07 09:42 41.61857 1.65655 18113 ft 442 kts 280°
2026-05-07 09:42 41.62471 1.61618 18448 ft 444 kts 279°
2026-05-07 09:43 41.63082 1.57567 18752 ft 446 kts 279°
2026-05-07 09:43 41.63694 1.53494 19064 ft 448 kts 279°
2026-05-07 09:43 41.64307 1.49410 19371 ft 449 kts 279°
2026-05-07 09:43 41.64924 1.45306 19661 ft 451 kts 279°
2026-05-07 09:44 41.65542 1.41194 19955 ft 452 kts 279°
2026-05-07 09:44 41.66161 1.37061 20239 ft 453 kts 279°
2026-05-07 09:44 41.66778 1.32922 20501 ft 455 kts 279°
2026-05-07 09:44 41.67393 1.28764 20754 ft 456 kts 279°
2026-05-07 09:45 41.68015 1.24546 21015 ft 457 kts 279°
2026-05-07 09:45 41.68631 1.20362 21245 ft 459 kts 279°
2026-05-07 09:45 41.69250 1.16163 21479 ft 460 kts 279°
2026-05-07 09:45 41.69867 1.11958 21700 ft 462 kts 279°
2026-05-07 09:46 41.70486 1.07741 21905 ft 463 kts 279°
2026-05-07 09:46 41.71108 1.03502 22113 ft 464 kts 279°
2026-05-07 09:46 41.71730 0.99259 22297 ft 465 kts 279°
2026-05-07 09:46 41.72351 0.95003 22466 ft 467 kts 279°
2026-05-07 09:47 41.72969 0.90732 22626 ft 468 kts 278°
2026-05-07 09:47 41.73587 0.86460 22768 ft 468 kts 278°
2026-05-07 09:47 41.74206 0.82177 22913 ft 469 kts 278°
2026-05-07 09:47 41.74823 0.77889 23050 ft 469 kts 278°
2026-05-07 09:48 41.75439 0.73592 23193 ft 470 kts 278°
2026-05-07 09:48 41.76049 0.69296 23336 ft 470 kts 278°
2026-05-07 09:48 41.76657 0.64999 23474 ft 470 kts 278°
2026-05-07 09:48 41.77265 0.60702 23605 ft 470 kts 278°
2026-05-07 09:49 41.77876 0.56394 23729 ft 470 kts 278°
2026-05-07 09:49 41.78486 0.52093 23844 ft 470 kts 278°
2026-05-07 09:49 41.79094 0.47788 23960 ft 470 kts 278°
2026-05-07 09:49 41.79699 0.43488 24083 ft 470 kts 278°
2026-05-07 09:50 41.80302 0.39180 24187 ft 470 kts 278°
2026-05-07 09:50 41.80901 0.34872 24303 ft 470 kts 278°
2026-05-07 09:50 41.81501 0.30567 24420 ft 470 kts 278°
2026-05-07 09:50 41.82105 0.26258 24538 ft 470 kts 278°
2026-05-07 09:51 41.82707 0.21955 24650 ft 470 kts 278°
2026-05-07 09:51 41.83304 0.17651 24772 ft 469 kts 278°
2026-05-07 09:51 41.83895 0.13348 24890 ft 469 kts 278°
2026-05-07 09:51 41.84487 0.09046 25008 ft 469 kts 278°
2026-05-07 09:52 41.85077 0.04737 25129 ft 469 kts 277°
2026-05-07 09:52 41.85660 0.00438 25254 ft 469 kts 277°
2026-05-07 09:52 41.86244 -0.03868 25380 ft 469 kts 277°
2026-05-07 09:52 41.86835 -0.08231 25507 ft 469 kts 277°
2026-05-07 09:53 41.87412 -0.12494 26046 ft 458 kts 277°
2026-05-07 09:53 41.87976 -0.16650 26798 ft 447 kts 277°
2026-05-07 09:53 41.88527 -0.20703 27580 ft 437 kts 277°
2026-05-07 09:53 41.89062 -0.24669 28381 ft 427 kts 276°
2026-05-07 09:54 41.89580 -0.28544 29206 ft 418 kts 276°
2026-05-07 09:54 41.90086 -0.32341 30060 ft 408 kts 276°
2026-05-07 09:54 41.90648 -0.36035 30712 ft 404 kts 281°
2026-05-07 09:54 41.91447 -0.39674 30960 ft 409 kts 283°
2026-05-07 09:55 41.92286 -0.43366 31021 ft 417 kts 283°
2026-05-07 09:55 41.94035 -0.50960 31026 ft 434 kts 283°
2026-05-07 09:56 41.95850 -0.58826 31023 ft 447 kts 283°
2026-05-07 09:56 41.97685 -0.66851 31018 ft 455 kts 283°
2026-05-07 09:57 41.99541 -0.75029 31016 ft 458 kts 283°
2026-05-07 09:57 42.01389 -0.83234 31014 ft 459 kts 283°
2026-05-07 09:58 42.03248 -0.91501 31012 ft 459 kts 283°
2026-05-07 09:58 42.05090 -0.99724 31013 ft 459 kts 283°
2026-05-07 09:59 42.06916 -1.07949 31013 ft 459 kts 283°
2026-05-07 09:59 42.08739 -1.16192 31012 ft 459 kts 283°
2026-05-07 10:00 42.10557 -1.24444 31011 ft 460 kts 283°
2026-05-07 10:00 42.12382 -1.32699 31012 ft 460 kts 283°
2026-05-07 10:01 42.14199 -1.40961 31015 ft 460 kts 283°
2026-05-07 10:01 42.16009 -1.49235 31015 ft 460 kts 282°
2026-05-07 10:02 42.17810 -1.57504 31012 ft 460 kts 282°
2026-05-07 10:02 42.19608 -1.65788 31022 ft 460 kts 282°
2026-05-07 10:03 42.21404 -1.74081 31011 ft 461 kts 282°
2026-05-07 10:03 42.23195 -1.82390 31009 ft 461 kts 282°
2026-05-07 10:04 42.24996 -1.90761 31013 ft 461 kts 282°
2026-05-07 10:04 42.26758 -1.99034 31003 ft 461 kts 282°
2026-05-07 10:05 42.28535 -2.07410 31005 ft 461 kts 282°
2026-05-07 10:05 42.30305 -2.15731 30992 ft 461 kts 282°
2026-05-07 10:06 42.32065 -2.24052 30992 ft 461 kts 282°
2026-05-07 10:06 42.33809 -2.32388 30994 ft 461 kts 282°
2026-05-07 10:07 42.35555 -2.40730 30991 ft 461 kts 282°
2026-05-07 10:07 42.37299 -2.49077 30991 ft 462 kts 282°
2026-05-07 10:08 42.39032 -2.57440 30988 ft 462 kts 282°
2026-05-07 10:08 42.40765 -2.65816 30986 ft 462 kts 282°
2026-05-07 10:09 42.42491 -2.74197 30985 ft 463 kts 282°
2026-05-07 10:09 42.44218 -2.82599 30983 ft 463 kts 282°
2026-05-07 10:10 42.45673 -2.91055 30981 ft 459 kts 275°
2026-05-07 10:10 42.46614 -2.99672 30981 ft 460 kts 275°
2026-05-07 10:11 42.47545 -3.08238 30976 ft 460 kts 275°
2026-05-07 10:11 42.48471 -3.16812 30978 ft 460 kts 275°
2026-05-07 10:12 42.49388 -3.25384 30979 ft 460 kts 275°
2026-05-07 10:12 42.50151 -3.32516 30977 ft 460 kts 275°
2026-05-07 10:13 42.51059 -3.41091 30973 ft 460 kts 275°
2026-05-07 10:13 42.51964 -3.49666 30974 ft 459 kts 275°
2026-05-07 10:14 42.52871 -3.58300 30967 ft 459 kts 275°
2026-05-07 10:14 42.53766 -3.66882 30964 ft 460 kts 275°
2026-05-07 10:15 42.54646 -3.75477 30964 ft 461 kts 275°
2026-05-07 10:15 42.55529 -3.84087 30958 ft 461 kts 275°
2026-05-07 10:16 42.56407 -3.92698 30954 ft 461 kts 275°
2026-05-07 10:16 42.57278 -4.01378 30950 ft 461 kts 275°
2026-05-07 10:17 42.58130 -4.09943 30945 ft 461 kts 275°
2026-05-07 10:17 42.58986 -4.18624 30944 ft 461 kts 275°
2026-05-07 10:18 42.59835 -4.27262 30944 ft 462 kts 275°
2026-05-07 10:18 42.60685 -4.35895 30944 ft 462 kts 275°
2026-05-07 10:19 42.61522 -4.44547 30945 ft 462 kts 275°
2026-05-07 10:19 42.62344 -4.53197 30945 ft 462 kts 275°
2026-05-07 10:20 42.63170 -4.61860 30948 ft 462 kts 275°
2026-05-07 10:20 42.63987 -4.70523 30952 ft 462 kts 275°
2026-05-07 10:21 42.64793 -4.79185 30952 ft 462 kts 275°
2026-05-07 10:21 42.65600 -4.87847 30949 ft 462 kts 275°
2026-05-07 10:22 42.66397 -4.96500 30946 ft 461 kts 275°
2026-05-07 10:22 42.67183 -5.05149 30938 ft 461 kts 275°
2026-05-07 10:23 42.67965 -5.13793 30939 ft 461 kts 275°
2026-05-07 10:23 42.68737 -5.22505 30940 ft 461 kts 275°
2026-05-07 10:24 42.69496 -5.31154 30933 ft 461 kts 275°
2026-05-07 10:24 42.70254 -5.39794 30942 ft 460 kts 276°
2026-05-07 10:25 42.71004 -5.48434 30941 ft 460 kts 276°
2026-05-07 10:25 42.71752 -5.57074 30935 ft 460 kts 276°
2026-05-07 10:26 42.72494 -5.65713 30940 ft 460 kts 276°
2026-05-07 10:26 42.73231 -5.74351 30939 ft 460 kts 276°
2026-05-07 10:27 42.73966 -5.82988 30940 ft 460 kts 276°
2026-05-07 10:27 42.74691 -5.91634 30939 ft 460 kts 276°
2026-05-07 10:28 42.75407 -6.00273 30939 ft 460 kts 276°
2026-05-07 10:28 42.76112 -6.08916 30935 ft 459 kts 276°
2026-05-07 10:29 42.76814 -6.17610 30934 ft 459 kts 276°
2026-05-07 10:29 42.77509 -6.26257 30925 ft 459 kts 276°
2026-05-07 10:30 42.78531 -6.39230 30929 ft 459 kts 276°
2026-05-07 10:30 42.79197 -6.47875 30932 ft 459 kts 276°
2026-05-07 10:31 42.79866 -6.56521 30829 ft 460 kts 276°
2026-05-07 10:31 42.80204 -6.60845 30331 ft 455 kts 276°
2026-05-07 10:31 42.80537 -6.65124 30222 ft 454 kts 276°
2026-05-07 10:32 42.81193 -6.73672 30037 ft 454 kts 276°
2026-05-07 10:32 42.81516 -6.77959 29415 ft 455 kts 276°
2026-05-07 10:32 42.81836 -6.82246 28564 ft 455 kts 276°
2026-05-07 10:33 42.82156 -6.86549 27745 ft 457 kts 276°
2026-05-07 10:33 42.82477 -6.90865 26937 ft 460 kts 276°
2026-05-07 10:33 42.82799 -6.95211 26169 ft 462 kts 275°
2026-05-07 10:33 42.83122 -6.99584 25405 ft 465 kts 275°
2026-05-07 10:34 42.83445 -7.03987 24656 ft 468 kts 275°
2026-05-07 10:34 42.83767 -7.08410 23950 ft 471 kts 275°
2026-05-07 10:34 42.84091 -7.12866 23196 ft 474 kts 275°
2026-05-07 10:34 42.84412 -7.17344 22438 ft 473 kts 275°
2026-05-07 10:35 42.84728 -7.21770 21709 ft 465 kts 275°
2026-05-07 10:35 42.85240 -7.26130 20988 ft 455 kts 283°
2026-05-07 10:35 42.86216 -7.30128 20309 ft 448 kts 292°
2026-05-07 10:35 42.87678 -7.33895 19632 ft 442 kts 302°
2026-05-07 10:36 42.89462 -7.37273 18969 ft 436 kts 306°
2026-05-07 10:36 42.91264 -7.40566 18325 ft 431 kts 306°
2026-05-07 10:36 42.93048 -7.43830 17602 ft 426 kts 306°
2026-05-07 10:36 42.94804 -7.47051 16889 ft 422 kts 306°
2026-05-07 10:37 42.96541 -7.50246 16336 ft 416 kts 306°
2026-05-07 10:37 42.98254 -7.53404 15831 ft 412 kts 306°
2026-05-07 10:37 42.99948 -7.56532 15321 ft 408 kts 306°
2026-05-07 10:37 43.01631 -7.59638 14828 ft 405 kts 306°
2026-05-07 10:38 43.03301 -7.62724 14339 ft 403 kts 306°
2026-05-07 10:38 43.04962 -7.65795 13857 ft 400 kts 306°
2026-05-07 10:38 43.06605 -7.68842 13334 ft 397 kts 306°
2026-05-07 10:38 43.08241 -7.71880 12792 ft 394 kts 306°
2026-05-07 10:39 43.09859 -7.74890 12272 ft 391 kts 306°
2026-05-07 10:39 43.11465 -7.77877 11752 ft 389 kts 306°
2026-05-07 10:39 43.13063 -7.80847 11253 ft 384 kts 306°
2026-05-07 10:39 43.14629 -7.83756 10741 ft 377 kts 305°
2026-05-07 10:40 43.16070 -7.86438 10278 ft 370 kts 306°
2026-05-07 10:40 43.17562 -7.89218 9821 ft 351 kts 306°
2026-05-07 10:40 43.18958 -7.91819 9454 ft 328 kts 306°
2026-05-07 10:40 43.20269 -7.94267 9126 ft 310 kts 305°
2026-05-07 10:41 43.21505 -7.96579 8815 ft 293 kts 305°
2026-05-07 10:41 43.22687 -7.98793 8491 ft 285 kts 305°
2026-05-07 10:41 43.23855 -8.00983 8185 ft 284 kts 305°
2026-05-07 10:41 43.24998 -8.03131 7874 ft 275 kts 305°
2026-05-07 10:42 43.26118 -8.05237 7577 ft 271 kts 305°
2026-05-07 10:42 43.27224 -8.07319 7328 ft 260 kts 306°
2026-05-07 10:42 43.28248 -8.09239 7107 ft 245 kts 306°
2026-05-07 10:42 43.29243 -8.11104 6890 ft 235 kts 305°
2026-05-07 10:43 43.30195 -8.12894 6658 ft 230 kts 306°
2026-05-07 10:43 43.30818 -8.14065 6510 ft 227 kts 306°
2026-05-07 10:43 43.31742 -8.15802 6292 ft 223 kts 306°
2026-05-07 10:43 43.32651 -8.17517 6059 ft 221 kts 306°
2026-05-07 10:44 43.33551 -8.19213 5830 ft 219 kts 306°
2026-05-07 10:44 43.34459 -8.20925 5590 ft 218 kts 306°
2026-05-07 10:44 43.35348 -8.22605 5366 ft 217 kts 306°
2026-05-07 10:44 43.36236 -8.24281 5135 ft 216 kts 306°
2026-05-07 10:45 43.37119 -8.25949 4902 ft 215 kts 306°
2026-05-07 10:45 43.37989 -8.27596 4681 ft 212 kts 306°
2026-05-07 10:45 43.38850 -8.29229 4444 ft 209 kts 307°
2026-05-07 10:45 43.39701 -8.30843 4216 ft 208 kts 307°
2026-05-07 10:46 43.40548 -8.32446 3974 ft 206 kts 307°
2026-05-07 10:46 43.41406 -8.34009 3747 ft 203 kts 315°
2026-05-07 10:46 43.42563 -8.35018 3557 ft 196 kts 346°
2026-05-07 10:46 43.43879 -8.35086 3536 ft 185 kts 14°
2026-05-07 10:47 43.45066 -8.34406 3518 ft 185 kts 27°
2026-05-07 10:47 43.46200 -8.33587 3505 ft 184 kts 28°
2026-05-07 10:47 43.47325 -8.32749 3504 ft 184 kts 28°
2026-05-07 10:47 43.48451 -8.31907 3511 ft 184 kts 28°
2026-05-07 10:48 43.49582 -8.31063 3413 ft 184 kts 28°
2026-05-07 10:48 43.50697 -8.30202 3260 ft 184 kts 35°
2026-05-07 10:48 43.51494 -8.28849 3121 ft 186 kts 67°
2026-05-07 10:48 43.51608 -8.27097 3023 ft 187 kts 101°
2026-05-07 10:49 43.50975 -8.25556 2983 ft 192 kts 136°
2026-05-07 10:49 43.49796 -8.24788 2870 ft 192 kts 173°
2026-05-07 10:49 43.48500 -8.25099 2772 ft 191 kts 206°
2026-05-07 10:49 43.47312 -8.25925 2666 ft 191 kts 207°
2026-05-07 10:50 43.46122 -8.26742 2561 ft 191 kts 207°
2026-05-07 10:50 43.44930 -8.27557 2448 ft 191 kts 207°
2026-05-07 10:50 43.43737 -8.28371 2363 ft 192 kts 207°
2026-05-07 10:50 43.42547 -8.29178 2247 ft 190 kts 207°
2026-05-07 10:51 43.41357 -8.29984 2142 ft 191 kts 207°
2026-05-07 10:51 43.40179 -8.30785 2096 ft 187 kts 207°
2026-05-07 10:51 43.39012 -8.31579 2137 ft 188 kts 206°
2026-05-07 10:51 43.37809 -8.32302 2131 ft 181 kts 199°
2026-05-07 10:52 43.36683 -8.32847 1857 ft 170 kts 204°
2026-05-07 10:52 43.35570 -8.33503 1431 ft 169 kts 205°
2026-05-07 10:52 43.34529 -8.34197 1126 ft 164 kts 210°
2026-05-07 10:52 43.33560 -8.34942 925 ft 156 kts 212°
2026-05-07 10:53 43.32662 -8.35702 745 ft 148 kts 214°
2026-05-07 10:53 43.31788 -8.36417 520 ft 145 kts 211°
2026-05-07 10:53 43.30917 -8.37136 329 ft 145 kts 212°
2026-05-07 10:53 43.30097 -8.37812 273 ft 122 kts 211°
2026-05-07 10:54 43.29629 -8.38206 270 ft 37 kts 211°
2026-05-07 10:54 43.29406 -8.38387 270 ft 38 kts 211°
2026-05-07 10:54 43.29258 -8.38546 271 ft 21 kts 240°
2026-05-07 10:54 43.29185 -8.38570 270 ft 4 kts 108°
2026-05-07 10:55 43.29202 -8.38551 271 ft 9 kts 36°
2026-05-07 10:55 43.29313 -8.38456 271 ft 22 kts 32°
2026-05-07 10:55 43.29454 -8.38342 270 ft 24 kts 30°
2026-05-07 10:55 43.29602 -8.38222 270 ft 25 kts 31°
2026-05-07 10:56 43.29753 -8.38098 274 ft 25 kts 33°
2026-05-07 10:56 43.29890 -8.37989 274 ft 15 kts 19°
2026-05-07 10:56 43.29977 -8.38054 273 ft 17 kts 320°
2026-05-07 10:56 43.30091 -8.38067 274 ft 18 kts 14°
2026-05-07 10:57 43.30136 -8.38054 274 ft 1 kts 335°
2026-05-07 10:57 43.30148 -8.38065 274 ft 3 kts 326°
2026-05-07 10:57 43.30157 -8.38073 274 ft 3 kts 324°
2026-05-07 10:57 43.30166 -8.38082 274 ft 0 kts 323°